Regional Weather Roundup
Issued by NWS

Home | Current Version | Previous Version | Text Only | Print | Product List | Glossary On
Versions: 1 2 3 4 5 6 7 8 9 10 11 12 13 14 15 16 17 18 19 20 21 22 23 24 25 26 27 28 29 30 31 32 33 34 35 36 37 38 39 40 41 42 43 44 45 46 47 48 49 50
000
ASUS45 KBOI 252210
RWRID
WEATHER ROUNDUP FOR IDAHO
NATIONAL WEATHER SERVICE BOISE ID
400 PM MDT FRI JUL 25 2014

NOTE: "FAIR" INDICATES FEW OR NO CLOUDS BELOW 12000 FEET
WITH NO SIGNIFICANT WEATHER AND/OR OBSTRUCTIONS TO VISIBILITY

IDZ012-014-252300-
SOUTHWEST IDAHO


CITY           SKY/WX    TMP DP  RH WIND       PRES   REMARKS
BOISE          SUNNY     81  33  17 NW7G17    30.03F
CALDWELL       SUNNY     82  41  23 NE3       30.05F
MOUNTAIN HOME  SUNNY     85  32  15 N9G17     30.01F
$$

IDZ016-017-252300-
SOUTHCENTRAL IDAHO


CITY           SKY/WX    TMP DP  RH WIND       PRES   REMARKS
BURLEY         SUNNY     80  37  21 W8        30.05F
JEROME         SUNNY     81  34  18 W9        30.07F
TWIN FALLS     SUNNY     82  32  16 NW6G17    30.07F
$$

IDZ019>023-252300-
SOUTHEAST IDAHO


CITY           SKY/WX    TMP DP  RH WIND       PRES   REMARKS
IDAHO FALLS    SUNNY     82  27  13 S15       30.07F
POCATELLO      SUNNY     84  29  13 W16       30.07F
REXBURG        SUNNY     79  27  14 SW16      30.08F
$$

IDZ006-010-011-018-031-032-252300-
CENTRAL IDAHO MOUNTAINS


CITY           SKY/WX    TMP DP  RH WIND       PRES   REMARKS
MCCALL         SUNNY     72  26  18 CALM      30.11F
HAILEY         MOSUNNY   81  30  16 S12G25    30.10S
STANLEY          N/A     74  19  12 VRB5G22   30.17F
SALMON         SUNNY     81  34  18 N6        29.98F
CHALLIS        SUNNY     85   3   4 W9G24     30.02F
$$

IDZ002-004-006-007-026-252300-
NORTHERN IDAHO


CITY           SKY/WX    TMP DP  RH WIND       PRES   REMARKS
LEWISTON       SUNNY     79  45  29 VRB6      30.03F
LOWELL           N/A     85  38  18 VRB3      30.01F
COEUR D`ALENE  SUNNY     75  45  33 NW9G16    30.06S
MULLAN PASS    MOSUNNY   56  43  61 CALM      30.18S
$$


USA.gov is the U.S. government's official web portal to all federal, state and local government web resources and services.